TimeCDT,TemperatureF,Dew PointF,Humidity,Sea Level PressureIn,VisibilityMPH,Wind Direction,Wind SpeedMPH,Gust SpeedMPH,PrecipitationIn,Events,Conditions,WindDirDegrees,DateUTC
12:56 AM,34.0,28.9,82,30.19,-9999.0,SSE,3.5,-,N/A,,Unknown,160,2012-11-03 05:56:00
1:56 AM,34.0,28.0,79,30.19,-9999.0,South,3.5,-,N/A,,Unknown,180,2012-11-03 06:56:00
2:56 AM,34.0,28.9,82,30.19,-9999.0,Calm,Calm,-,N/A,,Unknown,0,2012-11-03 07:56:00
3:56 AM,34.0,28.9,82,30.19,-9999.0,SSE,3.5,-,N/A,,Unknown,160,2012-11-03 08:56:00
4:56 AM,34.0,28.9,82,30.19,-9999.0,SSE,3.5,-,N/A,,Unknown,150,2012-11-03 09:56:00
5:56 AM,34.0,28.9,82,30.19,-9999.0,SSE,5.8,-,N/A,,Unknown,160,2012-11-03 10:56:00
6:56 AM,34.0,30.0,85,30.19,-9999.0,South,5.8,-,N/A,,Unknown,170,2012-11-03 11:56:00
7:56 AM,35.1,30.0,82,30.19,-9999.0,South,4.6,-,N/A,,Unknown,170,2012-11-03 12:56:00
8:56 AM,35.1,30.9,85,30.21,-9999.0,South,5.8,-,N/A,,Unknown,170,2012-11-03 13:56:00
9:56 AM,36.0,32.0,86,30.21,-9999.0,South,3.5,-,N/A,,Unknown,170,2012-11-03 14:56:00
10:56 AM,37.9,32.0,79,30.21,-9999.0,SSE,4.6,-,N/A,,Unknown,160,2012-11-03 15:56:00
11:56 AM,39.0,32.0,76,30.20,-9999.0,SE,3.5,-,N/A,,Unknown,140,2012-11-03 16:56:00
12:56 PM,39.0,33.1,79,30.20,-9999.0,SE,4.6,-,N/A,,Unknown,140,2012-11-03 17:56:00
1:56 PM,39.9,33.1,77,30.20,-9999.0,Calm,Calm,-,N/A,,Unknown,0,2012-11-03 18:56:00
2:56 PM,41.0,34.0,76,30.19,-9999.0,North,5.8,-,N/A,,Unknown,10,2012-11-03 19:56:00
3:56 PM,39.0,35.1,86,30.19,-9999.0,North,9.2,-,N/A,,Unknown,360,2012-11-03 20:56:00
4:56 PM,37.0,35.1,93,30.21,-9999.0,North,10.4,-,0.03,,Unknown,350,2012-11-03 21:56:00
5:56 PM,36.0,34.0,93,30.22,-9999.0,NNW,6.9,-,N/A,,Unknown,330,2012-11-03 22:56:00
6:56 PM,35.1,34.0,96,30.22,-9999.0,NNW,5.8,-,N/A,,Unknown,340,2012-11-03 23:56:00
7:56 PM,34.0,32.0,92,30.24,-9999.0,NW,5.8,-,N/A,,Unknown,310,2012-11-04 00:56:00
8:56 PM,33.1,32.0,96,30.24,-9999.0,NNW,5.8,-,N/A,,Unknown,330,2012-11-04 01:56:00
9:56 PM,34.0,33.1,96,30.25,-9999.0,NNW,4.6,-,N/A,,Unknown,330,2012-11-04 02:56:00
10:56 PM,34.0,32.0,92,30.25,-9999.0,NW,4.6,-,N/A,,Unknown,320,2012-11-04 03:56:00